Date,Time,Wetness (Wet Dry or Ice),Wind Speed (m/s),Temperature (C),Humidity (%),Pressure (mb),Radiation (W/m^2)
2019-11-08,05:45:00,DRY,5.25,9.10,24.5,773.00,1.1
2019-11-08,05:50:00,DRY,2.93,9.53,21.0,773.00,0.7
2019-11-08,05:55:00,DRY,3.50,9.45,24.5,773.00,0.8
2019-11-08,06:00:00,DRY,3.73,9.10,23.7,773.00,1.3
2019-11-08,06:05:00,DRY,2.25,9.30,22.5,773.00,1.1
2019-11-08,06:10:00,DRY,4.97,9.03,21.7,773.00,1.3
2019-11-08,06:15:00,DRY,4.70,9.20,20.5,773.00,1.0
2019-11-08,06:20:00,DRY,6.53,9.30,16.3,773.00,0.5
2019-11-08,06:25:00,DRY,6.80,9.75,15.5,773.00,1.1
2019-11-08,06:30:00,DRY,4.97,9.57,17.0,773.00,0.9
2019-11-08,06:35:00,DRY,5.25,9.20,21.5,773.00,0.9
2019-11-08,06:40:00,DRY,5.03,8.77,28.3,773.00,1.1
2019-11-08,06:45:00,DRY,4.75,8.70,22.0,773.00,0.5
2019-11-08,06:50:00,DRY,4.20,9.20,21.7,773.00,1.7
2019-11-08,06:55:00,DRY,2.20,8.95,27.0,773.00,0.9
2019-11-08,07:00:00,DRY,4.97,8.57,29.3,773.00,1.8
2019-11-08,07:05:00,DRY,5.30,8.40,26.5,773.00,1.8
2019-11-08,07:10:00,DRY,3.30,7.57,42.0,773.00,2.2
2019-11-08,07:15:00,DRY,2.85,7.65,40.0,773.00,2.7
2019-11-08,07:20:00,DRY,3.97,8.20,30.7,773.00,3.9
2019-11-08,07:25:00,DRY,4.00,8.65,26.0,773.00,6.8
2019-11-08,07:30:00,DRY,2.40,8.67,24.7,773.00,8.9
2019-11-08,07:35:00,DRY,2.95,8.00,32.5,773.00,12.2
2019-11-08,07:40:00,DRY,3.77,8.03,30.0,773.33,14.3
2019-11-08,07:45:00,DRY,3.55,7.80,31.5,773.50,17.4
2019-11-08,07:50:00,DRY,4.00,8.30,24.3,773.67,20.1
2019-11-08,07:55:00,DRY,2.40,8.15,25.0,774.00,21.5
2019-11-08,08:00:00,DRY,2.93,9.47,23.7,774.00,31.6
2019-11-08,08:05:00,DRY,4.70,10.05,13.5,774.00,137.1
2019-11-08,08:10:00,DRY,7.00,10.97,12.7,774.00,158.9
2019-11-08,08:15:00,DRY,3.65,10.35,17.0,774.00,178.1
2019-11-08,08:20:00,DRY,2.00,9.23,21.3,774.00,199.0
2019-11-08,08:25:00,DRY,1.55,8.35,25.5,774.00,217.4
2019-11-08,08:30:00,DRY,3.00,8.47,22.7,774.00,239.2
2019-11-08,08:35:00,DRY,3.45,8.95,18.0,774.00,260.1
2019-11-08,08:40:00,DRY,2.57,9.40,17.3,774.00,279.0
2019-11-08,08:45:00,DRY,3.00,9.20,19.0,774.00,300.5
2019-11-08,08:50:00,DRY,1.60,9.20,18.3,774.00,321.5
2019-11-08,08:55:00,DRY,2.75,9.60,16.5,774.00,341.4
2019-11-08,09:00:00,DRY,2.77,9.37,19.0,774.00,362.6
2019-11-08,09:05:00,DRY,3.65,9.95,20.0,774.00,382.6
2019-11-08,09:10:00,DRY,1.30,10.03,15.7,774.00,403.6
2019-11-08,09:15:00,DRY,3.25,9.95,18.5,774.00,422.9
2019-11-08,09:20:00,DRY,2.20,9.90,17.3,774.00,442.6
2019-11-08,09:25:00,DRY,2.75,10.35,15.5,774.00,462.1
2019-11-08,09:30:00,DRY,2.70,10.47,16.3,774.00,480.4
2019-11-08,09:35:00,DRY,1.15,10.65,18.5,774.00,500.4
2019-11-08,09:40:00,DRY,3.03,10.43,20.7,774.00,518.7
2019-11-08,09:45:00,DRY,4.40,10.20,20.0,774.00,534.5
2019-11-08,09:50:00,DRY,2.20,9.83,22.3,774.33,551.9
2019-11-08,09:55:00,DRY,2.75,9.70,18.5,774.50,571.0
2019-11-08,10:00:00,DRY,2.77,9.83,22.7,774.33,541.0
2019-11-08,10:05:00,DRY,1.60,9.90,26.0,774.50,512.0
2019-11-08,10:10:00,DRY,4.43,10.03,31.3,775.00,595.2
2019-11-08,10:15:00,DRY,2.45,9.90,35.5,774.50,630.9
2019-11-08,10:20:00,DRY,3.23,10.13,33.0,775.00,642.5
2019-11-08,10:25:00,DRY,3.40,10.40,35.5,775.00,635.8
2019-11-08,10:30:00,DRY,1.50,10.13,36.7,775.00,599.8
2019-11-08,10:35:00,DRY,3.05,10.10,39.0,775.00,646.2
2019-11-08,10:40:00,DRY,1.57,10.60,33.3,775.00,694.9
2019-11-08,10:45:00,DRY,1.45,10.60,35.0,775.00,711.3
2019-11-08,10:50:00,DRY,2.83,10.63,49.0,775.00,720.7
2019-11-08,10:55:00,DRY,2.45,10.50,48.0,775.00,734.3
2019-11-08,11:00:00,DRY,3.73,10.57,34.3,775.00,746.4
2019-11-08,11:05:00,DRY,2.80,10.45,40.0,774.50,755.0
2019-11-08,11:10:00,DRY,7.63,9.90,37.7,775.00,763.2
2019-11-08,11:15:00,DRY,3.60,9.05,54.0,775.00,786.0
2019-11-08,11:20:00,DRY,2.93,8.63,60.7,775.00,780.9
2019-11-08,11:25:00,DRY,3.65,8.65,74.0,775.00,794.0
2019-11-08,11:30:00,DRY,4.07,9.23,75.7,775.00,812.4
2019-11-08,11:35:00,DRY,5.25,8.65,84.5,775.00,533.1
2019-11-08,11:40:00,DRY,2.17,8.33,92.0,775.00,673.7
2019-11-08,11:45:00,WET,2.45,8.50,92.5,775.00,588.3
2019-11-08,11:50:00,DRY,2.07,8.63,92.0,775.00,713.7
2019-11-08,11:55:00,DRY,1.65,8.60,93.5,775.00,562.9
2019-11-08,12:00:00,DRY,4.13,8.40,95.0,775.00,394.0
2019-11-08,12:05:00,WET,4.90,8.15,95.0,775.00,760.2
2019-11-08,12:10:00,DRY,4.10,8.13,95.0,775.00,511.6
2019-11-08,12:15:00,DRY,2.95,8.30,96.5,775.00,320.5
2019-11-08,12:20:00,WET,4.47,8.37,96.3,775.00,526.0
2019-11-08,12:25:00,DRY,4.80,8.25,96.5,775.00,545.3
2019-11-08,12:30:00,WET,4.07,8.13,97.0,775.00,705.5
2019-11-08,12:35:00,WET,5.95,8.10,97.0,775.00,545.0
2019-11-08,12:40:00,WET,5.17,7.97,97.0,775.00,661.9
2019-11-08,12:45:00,WET,4.65,8.15,98.0,775.00,801.4
2019-11-08,12:50:00,WET,5.20,8.00,97.0,775.00,542.3
2019-11-08,12:55:00,WET,8.10,7.95,98.0,775.00,603.6
2019-11-08,13:00:00,WET,4.93,8.07,98.0,775.00,609.6
2019-11-08,13:05:00,WET,4.35,8.20,98.0,775.00,523.7
2019-11-08,13:10:00,WET,5.63,8.17,98.0,775.00,540.0
2019-11-08,13:15:00,WET,5.25,8.05,98.0,775.00,655.9
2019-11-08,13:20:00,WET,5.70,7.77,98.0,775.00,606.3
2019-11-08,13:25:00,WET,5.75,7.80,98.0,775.00,614.8
2019-11-08,13:30:00,WET,6.30,8.00,98.0,775.00,660.6
2019-11-08,13:35:00,WET,4.70,7.40,98.0,775.00,594.9
2019-11-08,13:40:00,WET,4.97,7.43,98.0,774.33,602.7
2019-11-08,13:45:00,WET,6.30,7.35,98.0,774.00,660.1
2019-11-08,13:50:00,WET,6.83,7.03,98.0,774.00,684.3
2019-11-08,13:55:00,WET,6.20,7.20,98.0,774.50,693.0
2019-11-08,14:00:00,WET,4.97,7.17,98.0,774.00,748.4
2019-11-08,14:05:00,WET,4.90,7.35,98.0,774.00,550.1
2019-11-08,14:10:00,WET,5.57,7.07,98.0,774.00,661.6
2019-11-08,14:15:00,WET,5.85,7.25,98.0,774.00,633.9
2019-11-08,14:20:00,WET,5.07,7.37,98.0,774.00,629.1
2019-11-08,14:25:00,WET,4.30,6.80,97.5,774.00,378.8
2019-11-08,14:30:00,WET,7.10,6.60,96.7,774.00,693.7
2019-11-08,14:35:00,WET,5.05,7.30,98.0,774.00,680.4
2019-11-08,14:40:00,WET,4.47,7.17,98.0,774.00,727.9
2019-11-08,14:45:00,WET,5.40,7.25,98.0,774.00,551.3
2019-11-08,14:50:00,WET,5.97,6.97,98.0,774.00,442.5
2019-11-08,14:55:00,WET,6.25,7.05,98.0,774.00,598.5
2019-11-08,15:00:00,WET,5.90,6.60,97.7,774.00,571.1
2019-11-08,15:05:00,WET,4.55,6.65,98.0,774.00,488.0
2019-11-08,15:10:00,WET,4.93,6.70,98.0,774.00,583.0
2019-11-08,15:15:00,WET,4.70,6.30,98.0,774.00,625.8
2019-11-08,15:20:00,WET,6.27,6.53,98.3,774.00,496.4
2019-11-08,15:25:00,WET,8.35,6.80,98.5,774.00,499.0
2019-11-08,15:30:00,WET,6.00,6.60,98.3,774.00,525.6
2019-11-08,15:35:00,WET,6.50,6.30,98.0,774.00,646.4
2019-11-08,15:40:00,WET,7.50,6.13,98.0,774.00,517.5
2019-11-08,15:45:00,WET,6.15,5.75,96.0,774.50,471.4
2019-11-08,15:50:00,WET,7.60,5.83,96.7,774.00,475.7
2019-11-08,15:55:00,WET,6.40,5.75,89.5,774.00,476.4
2019-11-08,16:00:00,WET,6.53,6.07,75.3,774.00,465.6
2019-11-08,16:05:00,WET,7.90,6.45,60.0,774.00,447.5
2019-11-08,16:10:00,DRY,4.60,7.77,35.7,774.00,433.9
2019-11-08,16:15:00,DRY,5.85,8.80,23.0,774.00,422.8
2019-11-08,16:20:00,DRY,4.93,9.67,16.0,774.00,404.0
2019-11-08,16:25:00,DRY,5.25,10.20,13.5,774.00,392.4
2019-11-08,16:30:00,DRY,5.23,10.63,9.7,774.33,373.2
2019-11-08,16:35:00,DRY,3.25,10.60,12.0,775.00,361.0
2019-11-08,16:40:00,DRY,6.33,10.83,9.3,775.00,361.5
2019-11-08,16:45:00,DRY,6.25,11.00,6.0,775.00,351.8
2019-11-08,16:50:00,DRY,5.40,11.23,5.7,775.00,332.5
2019-11-08,16:55:00,DRY,6.60,11.25,6.0,775.00,312.7
2019-11-08,17:00:00,DRY,5.57,11.43,6.0,775.00,292.6
2019-11-08,17:05:00,DRY,5.15,11.40,7.0,775.00,272.0
2019-11-08,17:10:00,DRY,7.00,11.30,7.0,775.00,252.1
2019-11-08,17:15:00,DRY,7.55,10.90,6.5,774.50,232.2
2019-11-08,17:20:00,DRY,7.33,10.97,7.3,774.67,212.6
2019-11-08,17:25:00,DRY,6.75,11.05,6.5,775.00,192.1
2019-11-08,17:30:00,DRY,8.73,11.03,7.0,775.00,174.0
2019-11-08,17:35:00,DRY,7.05,10.95,8.0,775.00,156.2
2019-11-08,17:40:00,DRY,5.53,10.80,6.3,775.00,135.4
2019-11-08,17:45:00,DRY,6.00,10.65,7.0,775.00,110.8
2019-11-08,17:50:00,DRY,4.53,10.57,5.7,775.00,86.6
2019-11-08,17:55:00,DRY,6.10,10.45,5.5,775.00,66.0
2019-11-08,18:00:00,DRY,5.60,10.13,6.3,775.00,47.8
2019-11-08,18:05:00,DRY,6.70,9.95,6.5,775.00,32.9
2019-11-08,18:10:00,DRY,4.70,9.90,7.0,775.00,22.0
2019-11-08,18:15:00,DRY,7.65,10.00,5.5,775.00,16.1
2019-11-08,18:20:00,DRY,8.03,10.03,5.7,775.00,11.7
2019-11-08,18:25:00,DRY,6.05,9.95,6.0,775.00,6.7
2019-11-08,18:30:00,DRY,5.73,10.07,5.0,775.00,4.8
2019-11-08,18:35:00,DRY,7.40,10.00,5.0,775.00,3.0
2019-11-08,18:40:00,DRY,5.43,10.03,5.0,775.00,2.0
2019-11-08,18:45:00,DRY,7.75,9.90,5.5,775.00,1.5
2019-11-08,18:50:00,DRY,5.27,9.93,6.7,775.00,1.2
2019-11-08,18:55:00,DRY,6.50,10.10,6.0,775.00,1.1
2019-11-08,19:00:00,DRY,6.13,10.10,5.7,775.00,1.5
2019-11-08,19:05:00,DRY,5.35,10.15,5.5,775.00,1.5
2019-11-08,19:10:00,DRY,8.37,10.00,6.3,775.00,1.2
2019-11-08,19:15:00,DRY,6.40,10.05,7.0,775.00,1.4
2019-11-08,19:20:00,DRY,7.73,10.20,6.3,775.00,1.2
2019-11-08,19:25:00,DRY,7.05,10.15,7.0,775.00,1.2
2019-11-08,19:30:00,DRY,10.10,10.00,7.7,775.00,1.5
2019-11-08,19:35:00,DRY,8.50,9.75,9.5,775.00,1.3
2019-11-08,19:40:00,DRY,9.27,10.03,6.3,775.00,1.2
2019-11-08,19:45:00,DRY,8.20,10.00,6.0,775.00,2.1
2019-11-08,19:50:00,DRY,7.17,9.83,7.3,775.00,1.3
2019-11-08,19:55:00,DRY,8.60,9.80,6.5,775.00,1.3
2019-11-08,20:00:00,DRY,6.43,9.73,7.3,775.00,1.5
2019-11-08,20:05:00,DRY,5.55,9.50,9.0,775.00,1.4
2019-11-08,20:10:00,DRY,6.07,9.87,6.3,775.00,1.9
2019-11-08,20:15:00,DRY,7.00,9.95,7.0,775.00,1.4
2019-11-08,20:20:00,DRY,6.80,9.80,8.7,775.33,1.2
2019-11-08,20:25:00,DRY,4.85,9.75,8.5,775.50,1.4
2019-11-08,20:30:00,DRY,6.83,9.70,8.0,776.00,1.0
2019-11-08,20:35:00,DRY,6.55,9.60,8.0,775.50,1.2
2019-11-08,20:40:00,DRY,6.13,9.67,8.3,776.00,1.2
2019-11-08,20:45:00,DRY,6.25,9.50,7.5,776.00,1.4
2019-11-08,20:50:00,DRY,5.87,9.47,8.0,776.00,1.4
2019-11-08,20:55:00,DRY,5.70,9.50,7.5,776.00,1.3
2019-11-08,21:00:00,DRY,5.27,9.70,6.7,776.00,2.0
2019-11-08,21:05:00,DRY,5.85,9.50,7.0,776.00,0.8
2019-11-08,21:10:00,DRY,6.87,9.67,6.7,776.00,1.0
2019-11-08,21:15:00,DRY,4.60,9.75,6.5,776.00,1.6
2019-11-08,21:20:00,DRY,6.60,9.77,6.7,776.00,1.1
2019-11-08,21:25:00,DRY,5.20,9.95,6.0,776.00,0.9
2019-11-08,21:30:00,DRY,5.83,9.80,6.0,776.00,1.1
2019-11-08,21:35:00,DRY,6.00,9.80,6.0,776.00,1.2
2019-11-08,21:40:00,DRY,4.80,9.93,6.0,776.00,1.1
2019-11-08,21:45:00,DRY,5.15,10.00,6.5,776.00,1.0
2019-11-08,21:50:00,DRY,6.80,10.07,6.3,776.00,0.8
2019-11-08,21:55:00,DRY,3.55,10.00,6.5,776.00,1.2
2019-11-08,22:00:00,DRY,5.87,9.87,6.3,776.00,1.0
2019-11-08,22:05:00,DRY,5.05,9.75,6.0,776.00,1.4
2019-11-08,22:10:00,DRY,5.23,9.80,6.0,776.00,1.0
2019-11-08,22:15:00,DRY,5.80,9.80,6.0,776.00,1.4
2019-11-08,22:20:00,DRY,2.87,9.73,6.3,776.00,1.8
2019-11-08,22:25:00,DRY,7.60,10.10,5.0,776.00,1.2
2019-11-08,22:30:00,DRY,5.30,10.13,5.7,776.00,1.1
2019-11-08,22:35:00,DRY,4.90,10.10,6.0,776.00,1.4
2019-11-08,22:40:00,DRY,5.40,10.13,6.3,776.00,1.5
2019-11-08,22:45:00,DRY,4.90,10.10,6.0,776.00,2.2
2019-11-08,22:50:00,DRY,7.10,10.40,5.3,776.00,1.2
2019-11-08,22:55:00,DRY,4.60,10.25,5.5,776.00,0.4
2019-11-08,23:00:00,DRY,5.83,10.13,5.7,776.00,1.2
2019-11-08,23:05:00,DRY,4.90,10.35,5.5,776.00,1.4
2019-11-08,23:10:00,DRY,2.93,10.50,5.3,776.00,1.5
2019-11-08,23:15:00,DRY,1.00,10.40,5.5,776.00,1.8
2019-11-08,23:20:00,DRY,6.23,10.63,5.0,776.00,1.4
2019-11-08,23:25:00,DRY,4.50,10.70,5.5,776.00,1.1
2019-11-08,23:30:00,DRY,3.80,10.60,6.0,776.00,1.4
2019-11-08,23:35:00,DRY,3.65,10.65,5.5,776.00,1.3
2019-11-08,23:40:00,DRY,5.43,10.53,6.0,776.00,1.8
2019-11-08,23:45:00,DRY,5.50,10.65,5.5,776.00,1.9
2019-11-08,23:50:00,DRY,5.80,10.63,5.3,776.00,1.1
2019-11-08,23:55:00,DRY,7.55,10.60,5.5,776.00,1.6
2019-11-09,00:00:00,DRY,5.80,10.73,5.3,776.00,1.4
2019-11-09,00:05:00,DRY,4.00,10.60,6.0,776.00,1.3
2019-11-09,00:10:00,DRY,4.47,10.67,5.7,776.00,1.3
2019-11-09,00:15:00,DRY,6.75,10.55,6.0,776.00,1.3
2019-11-09,00:20:00,DRY,8.33,10.63,5.7,776.00,1.1
2019-11-09,00:25:00,DRY,5.60,10.65,5.0,776.00,1.2
2019-11-09,00:30:00,DRY,7.20,10.97,5.3,776.00,1.4
2019-11-09,00:35:00,DRY,6.40,11.05,5.5,776.00,1.2
2019-11-09,00:40:00,DRY,8.70,11.07,5.7,776.00,1.2
2019-11-09,00:45:00,DRY,7.20,10.95,6.0,776.00,1.1
2019-11-09,00:50:00,DRY,7.13,11.13,6.0,776.00,1.0
2019-11-09,00:55:00,DRY,9.05,11.05,5.5,776.00,1.1
2019-11-09,01:00:00,DRY,7.60,11.33,5.3,776.00,1.0
2019-11-09,01:05:00,DRY,6.95,11.20,5.5,776.00,1.4
2019-11-09,01:10:00,DRY,8.50,11.07,5.7,776.00,1.2
2019-11-09,01:15:00,DRY,8.55,10.95,5.5,776.00,1.1
2019-11-09,01:20:00,DRY,7.50,10.83,6.0,776.00,1.2
2019-11-09,01:25:00,DRY,7.45,10.70,6.5,776.00,0.8
2019-11-09,01:30:00,DRY,9.67,10.63,6.3,776.00,0.7
2019-11-09,01:35:00,DRY,6.40,10.55,5.5,776.00,1.0
2019-11-09,01:40:00,DRY,7.47,10.67,5.0,776.00,0.9
2019-11-09,01:45:00,DRY,8.30,10.55,5.0,776.00,1.3
2019-11-09,01:50:00,DRY,6.67,10.40,5.3,776.00,1.2
2019-11-09,01:55:00,DRY,6.45,10.30,5.0,776.00,1.5
2019-11-09,02:00:00,DRY,5.13,10.40,4.7,776.00,1.5
2019-11-09,02:05:00,DRY,5.65,10.30,5.0,776.00,1.1
2019-11-09,02:10:00,DRY,7.03,10.27,6.0,776.00,1.2
2019-11-09,02:15:00,DRY,7.65,10.40,5.5,776.00,1.4
2019-11-09,02:20:00,DRY,6.47,10.27,7.0,775.67,1.0
2019-11-09,02:25:00,DRY,6.30,10.35,7.0,776.00,1.2
2019-11-09,02:30:00,DRY,6.80,10.27,8.0,775.67,1.0
2019-11-09,02:35:00,DRY,6.20,10.15,9.5,776.00,0.9
2019-11-09,02:40:00,DRY,8.00,10.47,5.7,775.33,1.1
2019-11-09,02:45:00,DRY,6.90,10.40,6.5,776.00,1.2
2019-11-09,02:50:00,DRY,5.50,10.30,5.3,775.67,1.3
2019-11-09,02:55:00,DRY,5.80,10.35,6.0,775.50,1.0
2019-11-09,03:00:00,DRY,7.00,10.30,5.3,776.00,1.1
2019-11-09,03:05:00,DRY,6.75,10.40,5.0,775.50,1.1
2019-11-09,03:10:00,DRY,6.93,10.20,5.0,775.33,1.3
2019-11-09,03:15:00,DRY,7.35,10.00,6.5,775.00,1.3
2019-11-09,03:20:00,DRY,6.50,9.97,6.0,775.00,1.1
2019-11-09,03:25:00,DRY,7.70,10.20,5.0,775.00,1.1
2019-11-09,03:30:00,DRY,6.37,10.17,5.0,775.00,1.3
2019-11-09,03:35:00,DRY,6.90,10.40,3.5,775.00,2.1
2019-11-09,03:40:00,DRY,5.70,10.10,4.7,775.00,1.3
2019-11-09,03:45:00,DRY,6.95,10.00,3.5,775.00,1.1
2019-11-09,03:50:00,DRY,6.87,9.87,4.3,775.00,1.5
2019-11-09,03:55:00,DRY,6.60,9.60,4.5,775.00,1.1
2019-11-09,04:00:00,DRY,7.70,9.87,4.0,775.00,1.2
2019-11-09,04:05:00,DRY,7.00,9.70,5.0,775.00,1.1
2019-11-09,04:10:00,DRY,10.27,9.93,4.7,775.00,1.2
2019-11-09,04:15:00,DRY,9.75,9.70,5.5,775.00,1.5
2019-11-09,04:20:00,DRY,7.93,9.73,6.0,775.00,1.1
2019-11-09,04:25:00,DRY,7.50,9.45,6.5,775.00,1.3
2019-11-09,04:30:00,DRY,7.50,9.77,5.7,775.00,0.4
2019-11-09,04:35:00,DRY,7.35,10.25,4.5,775.00,1.2
2019-11-09,04:40:00,DRY,7.87,9.90,6.0,775.00,0.9
2019-11-09,04:45:00,DRY,7.95,10.15,6.0,775.00,1.1
2019-11-09,04:50:00,DRY,8.57,9.80,7.7,775.00,1.3
2019-11-09,04:55:00,DRY,9.95,10.35,5.5,775.00,1.1
2019-11-09,05:00:00,DRY,7.90,10.40,5.7,775.00,0.8
2019-11-09,05:05:00,DRY,9.50,10.20,6.0,775.00,1.0
2019-11-09,05:10:00,DRY,7.37,10.00,6.7,775.00,1.2
2019-11-09,05:15:00,DRY,8.50,10.05,8.0,775.00,1.2
2019-11-09,05:20:00,DRY,8.47,10.40,9.0,775.00,1.2
2019-11-09,05:25:00,DRY,6.40,10.35,9.0,775.00,1.2
2019-11-09,05:30:00,DRY,7.40,10.27,8.0,775.00,1.0
2019-11-09,05:35:00,DRY,8.35,10.15,6.5,775.00,1.9
2019-11-09,05:40:00,DRY,7.53,10.07,7.0,775.00,1.2
2019-11-09,05:45:00,DRY,5.75,10.00,7.0,775.00,1.3
2019-11-09,05:50:00,DRY,7.33,9.73,7.7,775.00,1.2
2019-11-09,05:55:00,DRY,8.50,9.55,9.0,775.00,1.1
2019-11-09,06:00:00,DRY,8.73,9.77,7.7,775.00,1.4
2019-11-09,06:05:00,DRY,8.35,9.50,10.5,775.00,0.9
2019-11-09,06:10:00,DRY,8.60,9.57,9.3,775.00,1.0
2019-11-09,06:15:00,DRY,6.70,9.75,10.0,775.00,1.2
2019-11-09,06:20:00,DRY,7.83,9.53,10.3,775.00,1.2
2019-11-09,06:25:00,DRY,7.90,9.55,11.0,775.50,1.1
2019-11-09,06:30:00,DRY,7.17,9.33,13.0,775.00,0.9
2019-11-09,06:35:00,DRY,6.75,9.40,13.5,775.00,1.5
2019-11-09,06:40:00,DRY,7.83,9.17,14.3,775.00,1.4
2019-11-09,06:45:00,DRY,8.10,9.20,13.0,775.50,1.2
2019-11-09,06:50:00,DRY,8.33,9.10,13.0,775.67,1.1
2019-11-09,06:55:00,DRY,5.50,9.25,11.5,775.00,1.6
2019-11-09,07:00:00,DRY,7.77,9.23,11.3,775.33,1.3
2019-11-09,07:05:00,DRY,9.75,9.05,13.5,775.50,1.1
2019-11-09,07:10:00,DRY,7.93,9.33,13.0,776.00,1.7
2019-11-09,07:15:00,DRY,10.75,10.00,9.0,775.50,2.6
2019-11-09,07:20:00,DRY,9.90,9.63,11.7,775.33,3.9
2019-11-09,07:25:00,DRY,7.80,9.60,13.5,776.00,5.2
2019-11-09,07:30:00,DRY,9.00,9.20,12.3,776.00,8.0
2019-11-09,07:35:00,DRY,5.75,9.60,11.5,776.00,10.4
2019-11-09,07:40:00,DRY,6.23,9.40,12.0,776.00,13.3
2019-11-09,07:45:00,DRY,4.80,9.50,12.0,776.00,16.3
2019-11-09,07:50:00,DRY,7.03,9.40,12.7,776.00,18.8
2019-11-09,07:55:00,DRY,7.60,9.45,13.0,776.00,21.4
2019-11-09,08:00:00,DRY,6.80,9.57,14.3,776.00,23.8
2019-11-09,08:05:00,DRY,5.20,9.10,17.0,776.00,112.1
2019-11-09,08:10:00,DRY,8.47,9.30,20.3,776.00,160.3
2019-11-09,08:15:00,DRY,8.70,8.35,33.5,776.00,180.1
2019-11-09,08:20:00,DRY,7.43,8.43,26.3,776.00,200.8
2019-11-09,08:25:00,DRY,7.00,7.25,46.5,776.00,219.8
2019-11-09,08:30:00,DRY,8.87,7.93,37.0,776.00,242.5
2019-11-09,08:35:00,DRY,8.50,8.00,31.0,776.00,262.8
2019-11-09,08:40:00,DRY,8.43,8.53,25.3,776.00,283.8
2019-11-09,08:45:00,DRY,8.00,9.25,19.5,776.00,304.1
2019-11-09,08:50:00,DRY,7.83,8.70,26.7,776.00,324.9
2019-11-09,08:55:00,DRY,10.70,9.30,17.0,776.00,345.2
2019-11-09,09:00:00,DRY,7.37,9.27,20.0,776.00,365.4
2019-11-09,09:05:00,DRY,8.80,9.45,18.0,776.00,385.1
2019-11-09,09:10:00,DRY,7.77,9.07,25.7,776.00,404.3
2019-11-09,09:15:00,DRY,5.75,9.35,24.5,776.00,424.2
2019-11-09,09:20:00,DRY,6.50,8.90,28.3,776.00,442.9
2019-11-09,09:25:00,DRY,3.85,8.25,46.5,776.00,464.4
2019-11-09,09:30:00,DRY,7.03,6.90,66.3,776.00,439.7
2019-11-09,09:35:00,DRY,8.35,6.35,76.0,776.00,492.8
2019-11-09,09:40:00,DRY,9.13,7.17,49.7,776.00,515.0
2019-11-09,09:45:00,DRY,7.75,7.45,48.5,776.00,532.7
2019-11-09,09:50:00,DRY,8.83,8.00,35.7,776.33,549.8
2019-11-09,09:55:00,DRY,6.20,8.70,27.5,776.00,566.4
2019-11-09,10:00:00,DRY,6.77,9.43,23.0,777.00,582.5
2019-11-09,10:05:00,DRY,7.45,9.05,28.0,777.00,597.8
2019-11-09,10:10:00,DRY,7.50,9.33,24.7,777.00,613.3
2019-11-09,10:15:00,DRY,8.10,8.95,33.0,777.00,628.6
2019-11-09,10:20:00,DRY,7.67,8.20,39.7,777.00,643.1
2019-11-09,10:25:00,DRY,9.95,8.35,46.0,777.00,656.0
2019-11-09,10:30:00,DRY,7.33,7.87,45.7,777.00,669.8
2019-11-09,10:35:00,DRY,8.95,7.90,45.0,777.00,683.2
2019-11-09,10:40:00,DRY,8.03,7.40,55.3,777.00,695.7
2019-11-09,10:45:00,DRY,7.20,7.40,53.5,777.00,707.3
2019-11-09,10:50:00,DRY,6.90,7.10,60.3,777.00,718.6
2019-11-09,10:55:00,DRY,6.80,6.10,72.0,777.00,734.2
2019-11-09,11:00:00,DRY,8.27,6.03,71.0,777.00,726.5
2019-11-09,11:05:00,DRY,8.60,5.75,72.5,777.00,741.0
2019-11-09,11:10:00,DRY,8.90,6.90,53.3,777.00,760.9
2019-11-09,11:15:00,DRY,7.40,6.85,51.5,777.00,769.5
2019-11-09,11:20:00,DRY,7.20,8.03,34.7,777.00,778.6
2019-11-09,11:25:00,DRY,9.25,8.45,29.0,777.00,788.6
2019-11-09,11:30:00,DRY,11.13,8.50,28.3,777.00,797.1
2019-11-09,11:35:00,DRY,7.50,8.60,28.5,777.00,805.0
2019-11-09,11:40:00,DRY,9.23,6.40,67.7,777.00,745.1
2019-11-09,11:45:00,DRY,8.15,5.75,65.0,777.00,821.2
2019-11-09,11:50:00,WET,8.53,5.17,87.7,777.00,665.6
2019-11-09,11:55:00,DRY,7.50,5.35,85.5,777.00,855.8
2019-11-09,12:00:00,DRY,6.63,5.67,78.7,777.00,741.7
2019-11-09,12:05:00,DRY,8.65,5.95,68.0,777.00,828.8
2019-11-09,12:10:00,DRY,6.77,6.17,68.7,777.00,840.7
2019-11-09,12:15:00,DRY,8.25,5.55,70.0,776.50,854.9
2019-11-09,12:20:00,DRY,8.87,5.57,72.7,776.67,854.7
2019-11-09,12:25:00,DRY,7.05,5.35,81.0,777.00,874.5
2019-11-09,12:30:00,WET,6.83,5.13,93.7,776.67,695.3
2019-11-09,12:35:00,DRY,10.00,5.00,91.0,776.00,640.0
2019-11-09,12:40:00,DRY,9.97,5.17,86.3,776.00,697.9
2019-11-09,12:45:00,DRY,8.70,5.75,72.5,776.00,853.2
2019-11-09,12:50:00,DRY,7.93,5.73,65.0,776.00,858.7
2019-11-09,12:55:00,DRY,11.55,5.50,68.5,776.50,857.2
2019-11-09,13:00:00,DRY,9.17,5.27,72.3,776.00,850.8
2019-11-09,13:05:00,DRY,8.35,4.95,68.5,776.00,851.4
2019-11-09,13:10:00,DRY,10.00,5.70,59.7,776.00,849.1
2019-11-09,13:15:00,DRY,9.65,6.30,51.0,776.00,844.6
2019-11-09,13:20:00,DRY,10.93,6.87,45.0,776.00,842.4
2019-11-09,13:25:00,DRY,9.55,7.25,37.5,776.00,839.7
2019-11-09,13:30:00,DRY,9.00,7.00,43.0,776.00,837.5
2019-11-09,13:35:00,DRY,11.10,7.80,30.0,776.00,832.5
2019-11-09,13:40:00,DRY,9.67,7.80,24.3,776.00,829.3
2019-11-09,13:45:00,DRY,9.40,8.15,21.5,776.00,824.3
2019-11-09,13:50:00,DRY,8.90,8.30,23.7,776.00,818.6
2019-11-09,13:55:00,DRY,7.10,8.10,27.0,776.00,812.7
2019-11-09,14:00:00,DRY,9.77,7.87,32.7,776.00,805.5
2019-11-09,14:05:00,DRY,10.35,8.10,25.5,776.00,798.1
2019-11-09,14:10:00,DRY,10.13,8.17,26.3,776.00,790.8
2019-11-09,14:15:00,DRY,6.45,7.65,33.0,776.00,782.3
2019-11-09,14:20:00,DRY,8.80,7.47,34.0,776.00,773.3
2019-11-09,14:25:00,DRY,11.15,6.85,44.5,776.00,763.6
2019-11-09,14:30:00,DRY,8.27,6.23,38.7,775.67,754.4
2019-11-09,14:35:00,DRY,8.65,6.95,40.0,776.00,745.3
2019-11-09,14:40:00,DRY,5.77,5.77,48.0,776.00,735.5
2019-11-09,14:45:00,DRY,6.95,6.05,42.0,775.00,724.2
2019-11-09,14:50:00,DRY,9.27,6.00,52.0,775.33,712.9
2019-11-09,14:55:00,DRY,7.85,4.95,58.5,775.50,702.0
2019-11-09,15:00:00,DRY,8.50,5.27,57.3,775.00,687.7
2019-11-09,15:05:00,DRY,8.20,4.50,74.0,775.00,623.0
2019-11-09,15:10:00,DRY,10.13,4.73,60.0,775.00,662.8
2019-11-09,15:15:00,DRY,9.70,4.95,59.0,775.00,649.1
2019-11-09,15:20:00,DRY,8.37,4.10,72.3,775.00,631.3
2019-11-09,15:25:00,DRY,8.30,4.30,76.5,775.50,588.0
2019-11-09,15:30:00,DRY,6.80,3.83,86.3,775.00,505.9
2019-11-09,15:35:00,WET,8.40,3.70,95.0,775.00,300.7
2019-11-09,15:40:00,WET,9.27,3.70,97.0,775.00,549.4
2019-11-09,15:45:00,WET,7.00,3.95,97.0,775.00,304.8
2019-11-09,15:50:00,WET,8.77,4.07,98.0,775.00,268.6
2019-11-09,15:55:00,WET,9.65,3.85,98.0,775.00,365.4
2019-11-09,16:00:00,WET,10.00,3.77,96.7,775.00,374.0
2019-11-09,16:05:00,WET,10.80,3.90,97.5,775.00,222.1
2019-11-09,16:10:00,WET,7.57,3.90,97.7,775.00,288.7
2019-11-09,16:15:00,WET,13.05,3.65,97.5,775.00,213.2
2019-11-09,16:20:00,WET,10.53,3.87,97.0,775.00,249.9
2019-11-09,16:25:00,WET,8.75,3.75,98.0,775.00,277.9
2019-11-09,16:30:00,WET,10.50,4.23,98.0,775.00,129.4
2019-11-09,16:35:00,WET,7.45,4.20,99.0,775.50,203.8
2019-11-09,16:40:00,WET,7.47,4.07,99.0,775.00,180.2
2019-11-09,16:45:00,WET,11.45,3.85,99.0,775.00,177.1
2019-11-09,16:50:00,WET,9.57,3.70,99.0,775.00,225.8
2019-11-09,16:55:00,WET,7.10,3.90,99.0,775.00,313.2
2019-11-09,17:00:00,WET,9.93,3.83,99.0,775.00,161.7
2019-11-09,17:05:00,WET,6.70,3.95,99.0,775.00,179.0
2019-11-09,17:10:00,WET,8.93,3.70,99.0,775.00,130.3
2019-11-09,17:15:00,WET,7.80,3.50,99.0,775.00,247.2
2019-11-09,17:20:00,WET,10.30,3.30,99.0,775.00,143.2
2019-11-09,17:25:00,WET,6.55,3.00,99.0,775.00,143.8
2019-11-09,17:30:00,WET,7.63,2.97,99.0,775.00,146.9
2019-11-09,17:35:00,WET,11.55,2.45,99.0,775.00,172.8
2019-11-09,17:40:00,WET,13.63,2.30,99.0,775.00,114.0
2019-11-09,17:45:00,WET,6.90,2.85,99.0,775.00,115.2
2019-11-09,17:50:00,WET,10.97,3.20,99.0,775.00,96.9
2019-11-09,17:55:00,WET,12.10,3.05,99.0,775.00,119.5
2019-11-09,18:00:00,WET,9.37,3.10,99.0,775.00,95.1
2019-11-09,18:05:00,WET,7.50,2.90,99.0,775.00,76.7
2019-11-09,18:10:00,WET,10.13,2.73,99.0,775.00,90.7
2019-11-09,18:15:00,WET,10.95,2.70,98.5,775.00,64.1
2019-11-09,18:20:00,WET,13.97,2.63,87.0,775.00,47.1
2019-11-09,18:25:00,DRY,17.30,3.50,61.0,775.00,28.8
2019-11-09,18:30:00,DRY,13.60,3.87,54.7,775.00,23.4
2019-11-09,18:35:00,DRY,16.15,4.20,49.5,775.50,17.2
2019-11-09,18:40:00,WET,10.13,3.43,77.0,776.00,18.7
2019-11-09,18:45:00,WET,12.35,3.15,75.5,775.50,14.8
2019-11-09,18:50:00,WET,8.27,2.97,94.3,776.00,25.4
2019-11-09,18:55:00,WET,11.75,2.60,97.0,776.00,33.1
2019-11-09,19:00:00,WET,9.57,3.00,98.0,776.00,39.7
2019-11-09,19:05:00,WET,8.65,3.50,98.5,776.00,49.7
2019-11-09,19:10:00,WET,11.23,3.23,90.0,776.00,35.4
2019-11-09,19:15:00,WET,10.55,3.15,89.5,776.00,32.1
2019-11-09,19:20:00,WET,8.80,3.10,96.3,776.00,39.2
2019-11-09,19:25:00,WET,12.70,3.85,98.0,776.00,45.7
2019-11-09,19:30:00,WET,9.13,3.77,98.7,776.00,46.3
2019-11-09,19:35:00,WET,8.75,3.20,98.5,776.00,46.6
2019-11-09,19:40:00,WET,8.23,2.80,98.0,776.00,39.1
2019-11-09,19:45:00,WET,10.20,3.05,98.0,776.00,44.8
2019-11-09,19:50:00,WET,8.00,2.93,98.0,776.00,43.1
2019-11-09,19:55:00,WET,13.10,3.10,98.0,776.00,41.4
2019-11-09,20:00:00,WET,10.23,2.93,98.0,776.00,43.7
2019-11-09,20:05:00,WET,10.65,2.90,90.0,776.00,31.0
2019-11-09,20:10:00,WET,11.87,2.97,92.3,776.00,34.6
2019-11-09,20:15:00,WET,11.00,2.60,94.5,776.00,30.9
2019-11-09,20:20:00,WET,9.93,2.50,90.7,776.00,30.2
2019-11-09,20:25:00,WET,8.70,2.75,86.5,776.00,31.4
2019-11-09,20:30:00,WET,10.07,3.30,75.3,776.00,22.4